,,PA_Meas_PMT16A,,PR_Meas_QMR101_102,,RH_Meas_QMH101,,SR_Meas_QMS101,,TA_Meas_QMH101,,GenWind,,GenWind,
time,status,PA,status,PR,status,RH,status,SR,status,TA,status,DirAvg,status,SpdAvg,
2013-04-05, 00:00:04,VALID,917.134,VALID,0,VALID,92.3729,VALID,0,VALID,19.7643,VALID,13,VALID,0,
2013-04-05, 00:01:04,VALID,917.114,VALID,0,VALID,91.885,VALID,0,VALID,19.7838,VALID,14,VALID,0,
2013-04-05, 00:02:04,VALID,917.1,VALID,0,VALID,91.3666,VALID,0,VALID,19.8228,VALID,13,VALID,0,
2013-04-05, 00:03:04,VALID,917.07,VALID,0,VALID,91.1761,VALID,0,VALID,19.8813,VALID,14,VALID,0,
2013-04-05, 00:04:04,VALID,917.031,VALID,0,VALID,90.5128,VALID,0,VALID,19.9398,VALID,14,VALID,0,
2013-04-05, 00:05:04,VALID,917.035,VALID,0,VALID,89.9106,VALID,0,VALID,20.0163,VALID,14,VALID,0,
2013-04-05, 00:06:04,VALID,917.016,VALID,0,VALID,89.6361,VALID,0,VALID,20.1364,VALID,13,VALID,0,
2013-04-05, 00:07:04,VALID,916.991,VALID,0,VALID,89.6666,VALID,0,VALID,20.1739,VALID,14,VALID,0,
2013-04-05, 00:08:04,VALID,916.952,VALID,0,VALID,89.0872,VALID,0,VALID,20.1544,VALID,14,VALID,0,
2013-04-05, 00:09:04,VALID,916.923,VALID,0,VALID,88.8585,VALID,0,VALID,20.1934,VALID,14,VALID,0,
2013-04-05, 00:10:04,VALID,916.888,VALID,0,VALID,88.2563,VALID,0,VALID,20.2909,VALID,13,VALID,0,
2013-04-05, 00:11:04,VALID,916.901,VALID,0,VALID,88.0352,VALID,0,VALID,20.369,VALID,14,VALID,0,
2013-04-05, 00:12:04,VALID,916.884,VALID,0,VALID,87.7608,VALID,0,VALID,20.3869,VALID,14,VALID,0,
2013-04-05, 00:13:04,VALID,916.859,VALID,0,VALID,87.6464,VALID,0,VALID,20.4275,VALID,13,VALID,0,
2013-04-05, 00:14:04,VALID,916.819,VALID,0,VALID,87.4939,VALID,0,VALID,20.4665,VALID,14,VALID,0,
2013-04-05, 00:15:04,VALID,916.814,VALID,0,VALID,87.4101,VALID,0,VALID,20.4665,VALID,13,VALID,0,
2013-04-05, 00:16:04,VALID,916.777,VALID,0,VALID,87.311,VALID,0,VALID,20.486,VALID,14,VALID,0,
2013-04-05, 00:17:04,VALID,916.767,VALID,0,VALID,87.7531,VALID,0,VALID,20.5055,VALID,14,VALID,0,
2013-04-05, 00:18:04,VALID,916.756,VALID,0,VALID,87.5854,VALID,0,VALID,20.4259,VALID,13,VALID,0,
2013-04-05, 00:19:04,VALID,916.739,VALID,0,VALID,88.1648,VALID,0,VALID,20.3479,VALID,13,VALID,0,
2013-04-05, 00:20:04,VALID,916.739,VALID,0,VALID,88.5841,VALID,0,VALID,20.2519,VALID,14,VALID,0,
2013-04-05, 00:21:04,VALID,916.721,VALID,0,VALID,88.9729,VALID,0,VALID,20.1919,VALID,14,VALID,0,
2013-04-05, 00:22:04,VALID,916.733,VALID,0,VALID,89.1254,VALID,0,VALID,20.1544,VALID,14,VALID,0,
2013-04-05, 00:23:04,VALID,916.706,VALID,0,VALID,89.2854,VALID,0,VALID,20.0944,VALID,13,VALID,0,
2013-04-05, 00:24:04,VALID,916.727,VALID,0,VALID,89.5751,VALID,0,VALID,20.0959,VALID,14,VALID,0,
2013-04-05, 00:25:04,VALID,916.769,VALID,0,VALID,89.8725,VALID,0,VALID,20.0358,VALID,14,VALID,0,
2013-04-05, 00:26:04,VALID,916.742,VALID,0,VALID,90.0935,VALID,0,VALID,20.0179,VALID,13,VALID,0,
2013-04-05, 00:27:04,VALID,916.732,VALID,0,VALID,90.3908,VALID,0,VALID,19.9984,VALID,14,VALID,0,
2013-04-05, 00:28:04,VALID,916.732,VALID,0,VALID,90.4671,VALID,0,VALID,19.9788,VALID,13,VALID,0,
2013-04-05, 00:29:04,VALID,916.739,VALID,0,VALID,90.4671,VALID,0,VALID,19.9788,VALID,14,VALID,0,
2013-04-05, 00:30:04,VALID,916.711,VALID,0,VALID,90.3756,VALID,0,VALID,19.9578,VALID,14,VALID,0,
2013-04-05, 00:31:04,VALID,916.717,VALID,0,VALID,90.3222,VALID,0,VALID,19.9968,VALID,13,VALID,0,
2013-04-05, 00:32:04,VALID,916.734,VALID,0,VALID,90.4137,VALID,0,VALID,20.0374,VALID,14,VALID,0,
2013-04-05, 00:33:04,VALID,916.675,VALID,0,VALID,90.4518,VALID,0,VALID,20.0569,VALID,14,VALID,0,
2013-04-05, 00:34:04,VALID,916.635,VALID,0,VALID,90.5662,VALID,0,VALID,20.0764,VALID,14,VALID,0,
2013-04-05, 00:35:04,VALID,916.65,VALID,0,VALID,90.5509,VALID,0,VALID,20.0764,VALID,14,VALID,0,
2013-04-05, 00:36:04,VALID,916.599,VALID,0,VALID,90.4671,VALID,0,VALID,20.0764,VALID,14,VALID,0,
2013-04-05, 00:37:04,VALID,916.579,VALID,0,VALID,90.3375,VALID,0,VALID,20.0569,VALID,14,VALID,0,
2013-04-05, 00:38:04,VALID,916.555,VALID,0,VALID,90.4671,VALID,0,VALID,20.0764,VALID,13,VALID,0,
2013-04-05, 00:39:04,VALID,916.513,VALID,0,VALID,90.5509,VALID,0,VALID,20.0374,VALID,13,VALID,0,
2013-04-05, 00:40:04,VALID,916.501,VALID,0,VALID,90.368,VALID,0,VALID,20.0179,VALID,13,VALID,0,
2013-04-05, 00:41:04,VALID,916.491,VALID,0,VALID,90.5662,VALID,0,VALID,20.0374,VALID,13,VALID,0,
2013-04-05, 00:42:04,VALID,916.485,VALID,0,VALID,90.772,VALID,0,VALID,19.9788,VALID,14,VALID,0,
2013-04-05, 00:43:04,VALID,916.445,VALID,0,VALID,91.0312,VALID,0,VALID,19.9203,VALID,14,VALID,0,
2013-04-05, 00:44:04,VALID,916.46,VALID,0,VALID,91.2675,VALID,0,VALID,19.8813,VALID,14,VALID,0,
2013-04-05, 00:45:04,VALID,916.45,VALID,0,VALID,91.481,VALID,0,VALID,19.8813,VALID,14,VALID,0,
2013-04-05, 00:46:04,VALID,916.4,VALID,0,VALID,91.5877,VALID,0,VALID,19.8408,VALID,14,VALID,0,
2013-04-05, 00:47:04,VALID,916.444,VALID,0,VALID,91.6868,VALID,0,VALID,19.8228,VALID,14,VALID,0,
2013-04-05, 00:48:04,VALID,916.424,VALID,0,VALID,91.8698,VALID,0,VALID,19.7643,VALID,14,VALID,0,
2013-04-05, 00:49:04,VALID,916.389,VALID,0,VALID,92.0375,VALID,0,VALID,19.7448,VALID,14,VALID,0,
2013-04-05, 00:50:04,VALID,916.385,VALID,0,VALID,92.2586,VALID,0,VALID,19.7253,VALID,14,VALID,0,
2013-04-05, 00:51:04,VALID,916.365,VALID,0,VALID,92.4187,VALID,0,VALID,19.7058,VALID,14,VALID,0,
2013-04-05, 00:52:04,VALID,916.321,VALID,0,VALID,92.533,VALID,0,VALID,19.6863,VALID,14,VALID,0,
2013-04-05, 00:53:04,VALID,916.291,VALID,0,VALID,92.6626,VALID,0,VALID,19.6653,VALID,14,VALID,0,
2013-04-05, 00:54:04,VALID,916.317,VALID,0,VALID,92.7541,VALID,0,VALID,19.6458,VALID,14,VALID,0,
2013-04-05, 00:55:04,VALID,916.29,VALID,0,VALID,92.9676,VALID,0,VALID,19.6473,VALID,14,VALID,0,
2013-04-05, 00:56:04,VALID,916.303,VALID,0,VALID,93.0972,VALID,0,VALID,19.6068,VALID,14,VALID,0,
2013-04-05, 00:57:04,VALID,916.297,VALID,0,VALID,93.1734,VALID,0,VALID,19.6278,VALID,14,VALID,0,
2013-04-05, 00:58:04,VALID,916.279,VALID,0,VALID,93.0285,VALID,0,VALID,19.6083,VALID,14,VALID,0,
2013-04-05, 00:59:04,VALID,916.285,VALID,0,VALID,92.838,VALID,0,VALID,19.5288,VALID,14,VALID,0,
2013-04-05, 01:00:04,VALID,916.249,VALID,0,VALID,92.9599,VALID,0,VALID,19.4913,VALID,14,VALID,0,
2013-04-05, 01:01:04,VALID,916.243,VALID,0,VALID,93.425,VALID,0,VALID,19.4718,VALID,13,VALID,0,
2013-04-05, 01:02:04,VALID,916.231,VALID,0,VALID,93.3945,VALID,0,VALID,19.4523,VALID,14,VALID,0,
2013-04-05, 01:03:04,VALID,916.218,VALID,0,VALID,93.5164,VALID,0,VALID,19.4132,VALID,13,VALID,0,
2013-04-05, 01:04:04,VALID,916.181,VALID,0,VALID,93.6765,VALID,0,VALID,19.4132,VALID,14,VALID,0,
2013-04-05, 01:05:04,VALID,916.207,VALID,0,VALID,93.768,VALID,0,VALID,19.4132,VALID,14,VALID,0,
2013-04-05, 01:06:04,VALID,916.16,VALID,0,VALID,94.0653,VALID,0,VALID,19.4132,VALID,9,VALID,0,
2013-04-05, 01:07:04,VALID,916.15,VALID,0,VALID,94.294,VALID,0,VALID,19.4508,VALID,359,VALID,0,
2013-04-05, 01:08:04,VALID,916.112,VALID,0,VALID,94.3779,VALID,0,VALID,19.4913,VALID,356,VALID,0,
2013-04-05, 01:09:04,VALID,916.1,VALID,0,VALID,94.4313,VALID,0,VALID,19.5303,VALID,359,VALID,0,
2013-04-05, 01:10:04,VALID,916.092,VALID,0,VALID,94.4617,VALID,0,VALID,19.5498,VALID,357,VALID,0,
2013-04-05, 01:11:04,VALID,916.09,VALID,0,VALID,94.4617,VALID,0,VALID,19.5888,VALID,315,VALID,0,
2013-04-05, 01:12:04,VALID,916.057,VALID,0,VALID,94.3703,VALID,0,VALID,19.6068,VALID,1,VALID,0,
2013-04-05, 01:13:04,VALID,916.045,VALID,0,VALID,94.3245,VALID,0,VALID,19.6473,VALID,359,VALID,0,
2013-04-05, 01:14:04,VALID,916.081,VALID,0,VALID,94.2026,VALID,0,VALID,19.6668,VALID,340,VALID,0,
2013-04-05, 01:15:04,VALID,916.055,VALID,0,VALID,94.1644,VALID,0,VALID,19.6863,VALID,334,VALID,0,
2013-04-05, 01:16:04,VALID,916.015,VALID,0,VALID,94.0196,VALID,0,VALID,19.6848,VALID,8,VALID,0,
2013-04-05, 01:17:04,VALID,916.04,VALID,0,VALID,93.8671,VALID,0,VALID,19.7448,VALID,354,VALID,0,
2013-04-05, 01:18:04,VALID,916.011,VALID,0,VALID,93.6384,VALID,0,VALID,19.7838,VALID,330,VALID,0,
2013-04-05, 01:19:04,VALID,916.019,VALID,0,VALID,93.4707,VALID,0,VALID,19.8213,VALID,348,VALID,0,
2013-04-05, 01:20:04,VALID,916.009,VALID,0,VALID,93.1276,VALID,0,VALID,19.8813,VALID,48,VALID,0,
2013-04-05, 01:21:04,VALID,915.978,VALID,0,VALID,92.7922,VALID,0,VALID,19.9203,VALID,359,VALID,0,
2013-04-05, 01:22:04,VALID,915.952,VALID,0,VALID,92.5102,VALID,0,VALID,19.9578,VALID,20,VALID,0,
2013-04-05, 01:23:04,VALID,915.985,VALID,0,VALID,92.533,VALID,0,VALID,20.0374,VALID,31,VALID,0,
2013-04-05, 01:24:04,VALID,915.967,VALID,0,VALID,92.3806,VALID,0,VALID,20.0553,VALID,317,VALID,0,
2013-04-05, 01:25:04,VALID,915.944,VALID,0,VALID,92.0832,VALID,0,VALID,20.0749,VALID,1,VALID,0,
2013-04-05, 01:26:04,VALID,915.947,VALID,0,VALID,91.6792,VALID,0,VALID,20.1154,VALID,358,VALID,0,
2013-04-05, 01:27:04,VALID,915.947,VALID,0,VALID,91.3666,VALID,0,VALID,20.1334,VALID,351,VALID,0,
2013-04-05, 01:28:04,VALID,915.929,VALID,0,VALID,91.298,VALID,0,VALID,20.1934,VALID,355,VALID,0,
2013-04-05, 01:29:04,VALID,915.922,VALID,0,VALID,91.4962,VALID,0,VALID,20.2324,VALID,359,VALID,0,
2013-04-05, 01:30:04,VALID,915.941,VALID,0,VALID,91.3361,VALID,0,VALID,20.2129,VALID,343,VALID,0,
2013-04-05, 01:31:04,VALID,915.908,VALID,0,VALID,90.9702,VALID,0,VALID,20.1919,VALID,349,VALID,0,
2013-04-05, 01:32:04,VALID,915.883,VALID,0,VALID,91.0998,VALID,0,VALID,20.2324,VALID,4,VALID,0,
2013-04-05, 01:33:04,VALID,915.87,VALID,0,VALID,91.0388,VALID,0,VALID,20.2714,VALID,349,VALID,0,
2013-04-05, 01:34:04,VALID,915.885,VALID,0,VALID,91.4581,VALID,0,VALID,20.2504,VALID,349,VALID,0,
2013-04-05, 01:35:04,VALID,915.894,VALID,0,VALID,91.7783,VALID,0,VALID,20.2714,VALID,349,VALID,0,
2013-04-05, 01:36:04,VALID,915.888,VALID,0,VALID,91.5953,VALID,0,VALID,20.2324,VALID,349,VALID,0,
2013-04-05, 01:37:04,VALID,915.833,VALID,0,VALID,91.9308,VALID,0,VALID,20.1919,VALID,342,VALID,0,
2013-04-05, 01:38:04,VALID,915.827,VALID,0,VALID,92.0985,VALID,0,VALID,20.1739,VALID,8,VALID,0,
2013-04-05, 01:39:04,VALID,915.804,VALID,0,VALID,92.4339,VALID,0,VALID,20.1154,VALID,4,VALID,0,
2013-04-05, 01:40:04,VALID,915.782,VALID,0,VALID,92.6016,VALID,0,VALID,20.0553,VALID,359,VALID,0,
2013-04-05, 01:41:04,VALID,915.779,VALID,0,VALID,92.4873,VALID,0,VALID,20.0569,VALID,342,VALID,0,
2013-04-05, 01:42:04,VALID,915.779,VALID,0,VALID,92.4949,VALID,0,VALID,20.0959,VALID,346,VALID,0,
2013-04-05, 01:43:04,VALID,915.752,VALID,0,VALID,92.3119,VALID,0,VALID,20.0764,VALID,345,VALID,0,
2013-04-05, 01:44:04,VALID,915.724,VALID,0,VALID,92.2662,VALID,0,VALID,20.0764,VALID,345,VALID,0,
2013-04-05, 01:45:04,VALID,915.734,VALID,0,VALID,92.4187,VALID,0,VALID,20.0764,INVALID,360,VALID,0,
2013-04-05, 01:46:04,VALID,915.7,VALID,0,VALID,92.3958,VALID,0,VALID,20.0959,VALID,8,VALID,0,
2013-04-05, 01:47:04,VALID,915.71,VALID,0,VALID,92.2586,VALID,0,VALID,20.0764,VALID,348,VALID,0,
2013-04-05, 01:48:04,VALID,915.709,VALID,0,VALID,92.251,VALID,0,VALID,20.0959,VALID,318,VALID,0,
2013-04-05, 01:49:04,VALID,915.684,VALID,0,VALID,92.5864,VALID,0,VALID,20.0764,VALID,318,VALID,0,
2013-04-05, 01:50:04,VALID,915.666,VALID,0,VALID,93.0133,VALID,0,VALID,20.0374,VALID,354,VALID,0,
2013-04-05, 01:51:04,VALID,915.627,VALID,0,VALID,93.0438,VALID,0,VALID,19.9788,VALID,10,VALID,0,
2013-04-05, 01:52:04,VALID,915.582,VALID,0,VALID,92.7846,VALID,0,VALID,19.9788,VALID,27,VALID,0,
2013-04-05, 01:53:04,VALID,915.578,VALID,0,VALID,92.472,VALID,0,VALID,20.0163,VALID,17,VALID,0,
2013-04-05, 01:54:04,VALID,915.55,VALID,0,VALID,92.2814,VALID,0,VALID,20.0959,VALID,328,VALID,0,
2013-04-05, 01:55:04,VALID,915.55,VALID,0,VALID,91.9155,VALID,0,VALID,20.0944,VALID,349,VALID,0,
2013-04-05, 01:56:04,VALID,915.511,VALID,0,VALID,91.5039,VALID,0,VALID,20.1349,VALID,360,VALID,0,
2013-04-05, 01:57:04,VALID,915.51,VALID,0,VALID,91.4352,VALID,0,VALID,20.1724,VALID,5,VALID,0,
2013-04-05, 01:58:04,VALID,915.525,VALID,0,VALID,91.2752,VALID,0,VALID,20.1724,VALID,15,VALID,0,
2013-04-05, 01:59:04,VALID,915.515,VALID,0,VALID,90.9702,VALID,0,VALID,20.1739,VALID,9,VALID,0,
2013-04-05, 02:00:04,VALID,915.485,VALID,0,VALID,91.0312,VALID,0,VALID,20.1934,VALID,359,VALID,0,
2013-04-05, 02:01:04,VALID,915.492,VALID,0,VALID,91.2142,VALID,0,VALID,20.1934,VALID,15,VALID,0,
2013-04-05, 02:02:04,VALID,915.488,VALID,0,VALID,91.0465,VALID,0,VALID,20.1334,VALID,16,VALID,0,
2013-04-05, 02:03:04,VALID,915.514,VALID,0,VALID,90.9092,VALID,0,VALID,20.1334,VALID,351,VALID,0,
2013-04-05, 02:04:04,VALID,915.483,VALID,0,VALID,90.8483,VALID,0,VALID,20.1544,VALID,1,VALID,0,
2013-04-05, 02:05:04,VALID,915.482,VALID,0,VALID,90.9931,VALID,0,VALID,20.1154,VALID,12,VALID,0,
2013-04-05, 02:06:04,VALID,915.5,VALID,0,VALID,91.2752,VALID,0.107441,VALID,20.0749,VALID,7,VALID,0,
2013-04-05, 02:07:04,VALID,915.471,VALID,0,VALID,91.42,VALID,0,VALID,20.0358,VALID,356,VALID,0,
2013-04-05, 02:08:04,VALID,915.479,VALID,0,VALID,91.5496,VALID,0,VALID,19.9968,VALID,356,VALID,0,
2013-04-05, 02:09:04,VALID,915.464,VALID,0,VALID,91.8622,VALID,0,VALID,19.9773,VALID,356,VALID,0,
2013-04-05, 02:10:04,VALID,915.438,VALID,0,VALID,92.0146,VALID,0,VALID,19.9593,VALID,358,VALID,0,
2013-04-05, 02:11:04,VALID,915.41,VALID,0,VALID,91.9613,VALID,0,VALID,19.9578,VALID,2,VALID,0,
2013-04-05, 02:12:04,VALID,915.379,VALID,0,VALID,92.0146,VALID,0,VALID,19.9773,VALID,2,VALID,0,
2013-04-05, 02:13:04,VALID,915.378,VALID,0,VALID,91.8545,VALID,0,VALID,20.0179,VALID,2,VALID,0,
2013-04-05, 02:14:04,VALID,915.329,VALID,0,VALID,91.8469,VALID,0,VALID,20.0374,VALID,355,VALID,0,
2013-04-05, 02:15:04,VALID,915.331,VALID,0,VALID,91.8164,VALID,0,VALID,20.0374,VALID,355,VALID,0,
2013-04-05, 02:16:04,VALID,915.356,VALID,0,VALID,91.8622,VALID,0,VALID,20.0374,VALID,353,VALID,0,
2013-04-05, 02:17:04,VALID,915.334,VALID,0,VALID,91.7554,VALID,0,VALID,20.0163,VALID,341,VALID,0,
2013-04-05, 02:18:04,VALID,915.354,VALID,0,VALID,91.7554,VALID,0,VALID,20.0764,VALID,343,VALID,0,
2013-04-05, 02:19:04,VALID,915.323,VALID,0,VALID,92.0756,VALID,0,VALID,20.0764,VALID,343,VALID,0,
2013-04-05, 02:20:04,VALID,915.36,VALID,0,VALID,92.3348,VALID,0,VALID,20.0569,VALID,339,VALID,0,
2013-04-05, 02:21:04,VALID,915.329,VALID,0,VALID,92.3577,VALID,0,VALID,20.0569,VALID,338,VALID,0,
2013-04-05, 02:22:04,VALID,915.347,VALID,0,VALID,92.5559,VALID,0,VALID,20.0374,VALID,340,VALID,0,
2013-04-05, 02:23:04,VALID,915.323,VALID,0,VALID,92.6855,VALID,0,VALID,20.0374,VALID,342,VALID,0,
2013-04-05, 02:24:04,VALID,915.319,VALID,0,VALID,92.9523,VALID,0,VALID,19.9968,VALID,342,VALID,0,
2013-04-05, 02:25:04,VALID,915.293,VALID,0,VALID,93.2877,VALID,0,VALID,19.9593,VALID,34,VALID,0,
2013-04-05, 02:26:04,VALID,915.287,VALID,0,VALID,93.6384,VALID,0,VALID,19.9203,VALID,22,VALID,0,
2013-04-05, 02:27:04,VALID,915.236,VALID,0,VALID,93.8747,VALID,0,VALID,19.9008,VALID,11,VALID,0,
2013-04-05, 02:28:04,VALID,915.226,VALID,0,VALID,94.0653,VALID,0,VALID,19.8603,VALID,12,VALID,0,
2013-04-05, 02:29:04,VALID,915.203,VALID,0,VALID,94.233,VALID,0,VALID,19.8603,VALID,34,VALID,0,
2013-04-05, 02:30:04,VALID,915.186,VALID,0,VALID,94.3779,VALID,0,VALID,19.8813,VALID,32,VALID,0,
2013-04-05, 02:31:04,VALID,915.183,VALID,0,VALID,94.4465,VALID,0,VALID,19.8408,VALID,347,VALID,0,
2013-04-05, 02:32:04,VALID,915.195,VALID,0,VALID,94.3931,VALID,0,VALID,19.8423,VALID,356,VALID,0,
2013-04-05, 02:33:04,VALID,915.196,VALID,0,VALID,94.4084,VALID,0,VALID,19.8423,VALID,9,VALID,0,
2013-04-05, 02:34:04,VALID,915.208,VALID,0,VALID,94.355,VALID,0,VALID,19.8618,VALID,344,VALID,0,
2013-04-05, 02:35:04,VALID,915.186,VALID,0,VALID,94.3169,VALID,0,VALID,19.8423,VALID,9,VALID,0,
2013-04-05, 02:36:04,VALID,915.185,VALID,0,VALID,94.1721,VALID,0,VALID,19.8408,VALID,5,VALID,0,
2013-04-05, 02:37:04,VALID,915.186,VALID,0,VALID,94.1873,VALID,0,VALID,19.8618,VALID,5,VALID,0,
2013-04-05, 02:38:04,VALID,915.148,VALID,0,VALID,94.1492,VALID,0,VALID,19.8813,VALID,6,VALID,0,
2013-04-05, 02:39:04,VALID,915.175,VALID,0,VALID,94.1492,VALID,0,VALID,19.8423,VALID,4,VALID,0,
2013-04-05, 02:40:04,VALID,915.17,VALID,0,VALID,94.2026,VALID,0,VALID,19.8423,VALID,23,VALID,0,
2013-04-05, 02:41:04,VALID,915.137,VALID,0,VALID,94.233,VALID,0,VALID,19.8213,VALID,13,VALID,0,
2013-04-05, 02:42:04,VALID,915.133,VALID,0,VALID,94.3474,VALID,0,VALID,19.8033,VALID,26,VALID,0,
2013-04-05, 02:43:04,VALID,915.106,VALID,0,VALID,94.4922,VALID,0,VALID,19.7838,VALID,24,VALID,0,
2013-04-05, 02:44:04,VALID,915.121,VALID,0,VALID,94.5913,VALID,0,VALID,19.7838,VALID,11,VALID,0,
2013-04-05, 02:45:04,VALID,915.108,VALID,0,VALID,94.7286,VALID,0,VALID,19.7448,VALID,9,VALID,0,
2013-04-05, 02:46:04,VALID,915.077,VALID,0,VALID,94.8963,VALID,0,VALID,19.7253,VALID,22,VALID,0,
2013-04-05, 02:47:04,VALID,915.065,VALID,0,VALID,94.9954,VALID,0,VALID,19.6848,VALID,14,VALID,0,
2013-04-05, 02:48:04,VALID,915.063,VALID,0,VALID,95.1021,VALID,0,VALID,19.6863,VALID,14,VALID,0,
2013-04-05, 02:49:04,VALID,915.019,VALID,0,VALID,95.2241,VALID,0,VALID,19.6458,VALID,19,VALID,0,
2013-04-05, 02:50:04,VALID,915.013,VALID,0,VALID,95.3994,VALID,0,VALID,19.6668,VALID,2,VALID,0,
2013-04-05, 02:51:04,VALID,915.001,VALID,0,VALID,95.4528,VALID,0,VALID,19.6473,VALID,3,VALID,0,
2013-04-05, 02:52:04,VALID,914.985,VALID,0,VALID,95.5214,VALID,0,VALID,19.6473,VALID,5,VALID,0,
2013-04-05, 02:53:04,VALID,914.977,VALID,0,VALID,95.6053,VALID,0,VALID,19.6278,VALID,4,VALID,0,
2013-04-05, 02:54:04,VALID,915.004,VALID,0,VALID,95.6357,VALID,0,VALID,19.6278,VALID,2,VALID,0,
2013-04-05, 02:55:04,VALID,914.992,VALID,0,VALID,95.6129,VALID,0,VALID,19.6278,VALID,333,VALID,0,
2013-04-05, 02:56:04,VALID,914.972,VALID,0,VALID,95.6434,VALID,0,VALID,19.6278,VALID,333,VALID,0,
2013-04-05, 02:57:04,VALID,914.963,VALID,0,VALID,95.6967,VALID,0,VALID,19.6278,VALID,333,VALID,0,
2013-04-05, 02:58:04,VALID,914.919,VALID,0,VALID,95.6281,VALID,0,VALID,19.6473,VALID,348,VALID,0,
2013-04-05, 02:59:04,VALID,914.907,VALID,0,VALID,95.6205,VALID,0,VALID,19.6458,VALID,352,VALID,0,
2013-04-05, 03:00:04,VALID,914.901,VALID,0,VALID,95.6129,VALID,0,VALID,19.6458,VALID,352,VALID,0,
2013-04-05, 03:01:04,VALID,914.863,VALID,0,VALID,95.651,VALID,0.107441,VALID,19.6848,VALID,352,VALID,0,
2013-04-05, 03:02:04,VALID,914.827,VALID,0,VALID,95.6281,VALID,0.107441,VALID,19.6638,VALID,351,VALID,0,
2013-04-05, 03:03:04,VALID,914.821,VALID,0,VALID,95.5748,VALID,0,VALID,19.7043,VALID,351,VALID,0,
2013-04-05, 03:04:04,VALID,914.834,VALID,0,VALID,95.5824,VALID,0.107441,VALID,19.7043,VALID,351,VALID,0,
2013-04-05, 03:05:04,VALID,914.834,VALID,0,VALID,95.5443,VALID,0.107441,VALID,19.7043,VALID,351,VALID,0,
2013-04-05, 03:06:04,VALID,914.832,VALID,0,VALID,95.5595,VALID,0,VALID,19.7043,VALID,351,VALID,0,
2013-04-05, 03:07:04,VALID,914.839,VALID,0,VALID,95.5976,VALID,0,VALID,19.7238,VALID,351,VALID,0,
2013-04-05, 03:08:04,VALID,914.834,VALID,0,VALID,95.59,VALID,0.107441,VALID,19.7433,VALID,351,VALID,0,
2013-04-05, 03:09:04,VALID,914.811,VALID,0,VALID,95.5138,VALID,0,VALID,19.7238,VALID,344,VALID,0,
2013-04-05, 03:10:04,VALID,914.822,VALID,0,VALID,95.5367,VALID,0.107441,VALID,19.7238,VALID,344,VALID,0,
2013-04-05, 03:11:04,VALID,914.859,VALID,0,VALID,95.5138,VALID,0,VALID,19.7238,VALID,344,VALID,0,
2013-04-05, 03:12:04,VALID,914.893,VALID,0,VALID,95.6129,VALID,0.107441,VALID,19.7433,VALID,344,VALID,0,
2013-04-05, 03:13:04,VALID,914.901,VALID,0,VALID,95.5976,VALID,0.107441,VALID,19.7433,VALID,344,VALID,0,
2013-04-05, 03:14:04,VALID,914.93,VALID,0,VALID,95.6053,VALID,0,VALID,19.7238,VALID,344,VALID,0,
2013-04-05, 03:15:04,VALID,914.909,VALID,0,VALID,95.6586,VALID,0,VALID,19.7238,VALID,344,VALID,0,
2013-04-05, 03:16:04,VALID,914.934,VALID,0,VALID,95.6205,VALID,0,VALID,19.7448,VALID,344,VALID,0,
2013-04-05, 03:17:04,VALID,914.907,VALID,0,VALID,95.5748,VALID,0,VALID,19.7058,VALID,344,VALID,0,
2013-04-05, 03:18:04,VALID,914.976,VALID,0,VALID,95.6891,VALID,0,VALID,19.6863,VALID,344,VALID,0,
2013-04-05, 03:19:04,VALID,914.988,VALID,0,VALID,95.7577,VALID,0,VALID,19.7058,VALID,344,VALID,0,
2013-04-05, 03:20:04,VALID,914.988,VALID,0,VALID,95.7349,VALID,0,VALID,19.6863,VALID,331,VALID,0,
2013-04-05, 03:21:04,VALID,914.99,VALID,0,VALID,95.7501,VALID,0,VALID,19.6653,VALID,301,VALID,0,
2013-04-05, 03:22:04,VALID,914.996,VALID,0,VALID,95.8263,VALID,0,VALID,19.7043,VALID,336,VALID,0,
2013-04-05, 03:23:04,VALID,914.987,VALID,0,VALID,95.8645,VALID,0,VALID,19.7253,VALID,343,VALID,0,
2013-04-05, 03:24:04,VALID,915.026,VALID,0,VALID,95.895,VALID,0,VALID,19.7448,VALID,349,VALID,0,
2013-04-05, 03:25:04,VALID,914.996,VALID,0,VALID,95.9102,VALID,0,VALID,19.7238,VALID,349,VALID,0,
2013-04-05, 03:26:04,VALID,914.984,VALID,0,VALID,95.8797,VALID,0,VALID,19.7253,VALID,342,VALID,0,
2013-04-05, 03:27:04,VALID,915.002,VALID,0,VALID,95.9102,VALID,0,VALID,19.7238,VALID,35,VALID,0,
2013-04-05, 03:28:04,VALID,915.035,VALID,0,VALID,95.9026,VALID,0,VALID,19.7448,VALID,330,VALID,0,
2013-04-05, 03:29:04,VALID,915.012,VALID,0,VALID,95.9331,VALID,0,VALID,19.7253,VALID,358,VALID,0,
2013-04-05, 03:30:04,VALID,915.016,VALID,0,VALID,95.9254,VALID,0,VALID,19.7253,VALID,355,VALID,0,
2013-04-05, 03:31:04,VALID,915.02,VALID,0,VALID,95.9788,VALID,0,VALID,19.7253,VALID,355,VALID,0,
2013-04-05, 03:32:04,VALID,915.017,VALID,0,VALID,96.0093,VALID,0,VALID,19.7253,VALID,355,VALID,0,
2013-04-05, 03:33:04,VALID,915.033,VALID,0,VALID,96.0398,VALID,0,VALID,19.7253,VALID,338,VALID,0,
2013-04-05, 03:34:04,VALID,915.001,VALID,0,VALID,96.0245,VALID,0,VALID,19.6653,VALID,338,VALID,0,
2013-04-05, 03:35:04,VALID,915.016,VALID,0,VALID,96.0474,VALID,0,VALID,19.6848,VALID,338,VALID,0,
2013-04-05, 03:36:04,VALID,914.993,VALID,0,VALID,96.0398,VALID,0,VALID,19.6863,VALID,338,VALID,0,
2013-04-05, 03:37:04,VALID,915.033,VALID,0,VALID,96.1008,VALID,0,VALID,19.6863,VALID,338,VALID,0,
2013-04-05, 03:38:04,VALID,915.026,VALID,0,VALID,96.1313,VALID,0,VALID,19.6653,VALID,338,VALID,0,
2013-04-05, 03:39:04,VALID,915.048,VALID,0,VALID,96.1694,VALID,0,VALID,19.7058,VALID,338,VALID,0,
2013-04-05, 03:40:04,VALID,915.006,VALID,0,VALID,96.1846,VALID,0,VALID,19.7058,VALID,338,VALID,0,
2013-04-05, 03:41:04,VALID,915.047,VALID,0,VALID,96.1999,VALID,0,VALID,19.7058,VALID,338,VALID,0,
2013-04-05, 03:42:05,VALID,915.029,VALID,0,VALID,96.2456,VALID,0,VALID,19.7253,VALID,338,VALID,0,
2013-04-05, 03:43:05,VALID,915.05,VALID,0,VALID,96.2609,VALID,0,VALID,19.7253,VALID,338,VALID,0,
2013-04-05, 03:44:05,VALID,915.021,VALID,0,VALID,96.2533,VALID,0,VALID,19.6848,VALID,338,VALID,0,
2013-04-05, 03:45:05,VALID,915.02,VALID,0,VALID,96.2533,VALID,0,VALID,19.7058,VALID,338,VALID,0,
2013-04-05, 03:46:05,VALID,915.01,VALID,0,VALID,96.299,VALID,0,VALID,19.6848,VALID,338,VALID,0,
2013-04-05, 03:47:05,VALID,915.02,VALID,0,VALID,96.3295,VALID,0,VALID,19.6848,VALID,339,VALID,0,
2013-04-05, 03:48:05,VALID,915.011,VALID,0,VALID,96.3142,VALID,0,VALID,19.6668,VALID,7,VALID,0,
2013-04-05, 03:49:05,VALID,915.005,VALID,0,VALID,96.3219,VALID,0,VALID,19.6668,VALID,7,VALID,0,
2013-04-05, 03:50:05,VALID,914.988,VALID,0,VALID,96.3829,VALID,0,VALID,19.6863,VALID,7,VALID,0,
2013-04-05, 03:51:05,VALID,915.001,VALID,0,VALID,96.3829,VALID,0,VALID,19.7073,VALID,7,VALID,0,
2013-04-05, 03:52:05,VALID,915.018,VALID,0,VALID,96.3829,VALID,0,VALID,19.6668,VALID,7,VALID,0,
2013-04-05, 03:53:05,VALID,915.056,VALID,0,VALID,96.4286,VALID,0,VALID,19.6668,VALID,7,VALID,0,
2013-04-05, 03:54:05,VALID,915.083,VALID,0,VALID,96.421,VALID,0,VALID,19.6473,VALID,7,VALID,0,
2013-04-05, 03:55:05,VALID,915.086,VALID,0,VALID,96.4362,VALID,0,VALID,19.6653,VALID,7,VALID,0,
2013-04-05, 03:56:05,VALID,915.063,VALID,0,VALID,96.4667,VALID,0,VALID,19.6863,VALID,7,VALID,0,
2013-04-05, 03:57:05,VALID,915.077,VALID,0,VALID,96.4667,VALID,0,VALID,19.6668,VALID,7,VALID,0,
2013-04-05, 03:58:05,VALID,915.071,VALID,0,VALID,96.4819,VALID,0,VALID,19.6668,VALID,7,VALID,0,
2013-04-05, 03:59:05,VALID,915.028,VALID,0,VALID,96.4667,VALID,0,VALID,19.6458,VALID,7,VALID,0,
2013-04-05, 04:00:05,VALID,915.014,VALID,0,VALID,96.4743,VALID,0,VALID,19.6473,VALID,7,VALID,0,
2013-04-05, 04:01:05,VALID,915.019,VALID,0,VALID,96.5201,VALID,0,VALID,19.6668,VALID,7,VALID,0,